ECMWFFLT1_850_rhum_105.txt.gz
RH
27 28 30 34 38 42 44 45 41 38 41 46 50 50 51 53 54 53 52 51 51 52 52 53 54 54 53 52 50 48 48 47 49 51 51 56 59 59 67 72 79 93 79 52 45 43 48 62 60 51 49 43 38 40 43 43 38 34 32 30 25 22 21
27 29 35 42 47 50 50 48 44 41 44 49 51 52 53 57 58 55 53 53 52 52 53 54 55 56 55 54 54 53 56 59 61 67 68 68 73 71 73 78 79 88 90 70 55 52 53 65 69 56 53 54 44 41 48 48 44 41 37 34 33 29 27
27 29 37 45 51 55 54 50 47 45 47 50 52 54 56 58 57 54 52 52 53 53 54 57 57 58 58 60 64 67 72 78 79 81 82 78 79 80 77 78 80 84 90 80 66 60 60 71 79 67 64 67 51 43 52 50 43 46 44 38 37 37 35
29 31 37 45 51 56 56 53 49 48 49 51 55 58 60 59 55 53 53 52 54 55 56 58 59 60 65 73 82 86 85 88 88 87 86 82 80 82 79 78 80 80 82 80 73 66 66 81 93 79 71 75 59 43 47 48 43 45 46 42 41 41 40
30 34 39 45 50 56 58 55 51 51 52 55 59 62 62 59 54 52 53 53 55 57 57 60 64 70 81 89 93 94 91 91 92 89 86 83 81 81 80 78 79 77 78 81 81 76 75 90 103 88 70 73 69 51 46 48 47 48 48 46 44 43 43
33 36 41 47 55 60 58 55 54 54 55 56 59 61 59 55 52 52 54 55 56 59 63 72 82 89 95 98 95 94 93 92 91 88 83 81 80 79 79 78 77 77 80 84 85 85 86 95 105 95 73 68 70 63 59 60 55 50 48 50 53 52 50
35 39 46 53 58 60 56 55 56 55 55 56 56 57 55 51 51 52 54 57 61 69 80 90 97 98 95 93 91 89 89 88 87 84 81 80 78 77 77 78 79 80 83 87 88 88 91 97 104 99 78 64 66 70 71 70 64 57 53 55 59 59 55
37 42 50 55 56 55 53 55 56 55 55 56 56 55 51 49 52 55 59 68 77 86 94 96 95 93 89 87 85 83 85 86 85 85 82 80 78 78 80 82 83 84 87 90 92 91 93 99 105 99 80 68 75 83 76 67 73 80 72 60 56 55 55
39 42 48 53 52 52 53 53 54 54 55 56 54 51 52 56 61 65 72 83 89 91 92 89 86 84 82 82 81 82 84 86 87 88 85 82 82 85 89 91 89 90 92 95 98 94 92 99 103 95 83 78 83 90 83 72 80 88 76 65 63 55 51
40 43 45 49 50 50 51 52 52 52 54 54 53 54 63 74 80 81 87 94 96 97 96 92 89 87 85 85 86 88 91 92 93 91 89 91 95 97 99 99 98 98 99 100 100 93 90 99 102 92 86 85 83 85 87 81 77 76 70 73 79 66 47
42 44 45 47 50 49 49 50 50 52 53 53 58 69 78 83 88 92 96 100 101 101 100 98 97 96 93 93 94 96 98 97 96 93 90 92 95 98 99 98 98 98 97 100 101 95 95 102 102 93 90 90 82 77 78 77 77 79 77 79 89 85 63
45 46 47 48 50 50 50 51 51 54 55 56 65 82 89 87 90 96 99 101 101 100 100 100 100 99 97 96 98 100 99 96 93 90 87 84 85 89 86 79 77 82 88 98 103 102 101 102 101 100 95 86 73 64 67 74 80 82 82 85 93 93 76
48 49 50 51 52 53 53 55 56 57 60 63 66 78 90 94 95 98 101 102 100 100 101 100 99 100 99 97 99 99 95 92 88 85 84 83 82 81 74 64 64 71 81 90 96 99 100 97 98 99 90 73 63 64 73 80 79 76 80 89 93 89 81
51 52 54 54 55 57 58 60 63 63 66 71 71 75 88 98 101 101 102 101 100 100 101 100 99 101 99 97 97 95 90 88 85 84 84 82 79 74 71 69 70 73 75 76 80 87 87 84 86 88 81 69 65 73 80 82 81 78 83 93 97 94 93
55 56 58 59 60 62 64 67 70 71 73 77 79 81 89 96 99 101 100 100 102 101 99 98 98 97 97 96 93 88 87 86 85 85 83 79 75 71 71 73 73 72 72 70 70 74 75 74 75 76 75 72 71 76 82 87 92 92 94 100 100 99 99
62 62 64 66 67 68 72 74 76 78 81 82 82 84 89 93 95 98 98 96 95 95 95 95 95 93 93 91 87 86 86 85 85 87 85 80 78 77 80 81 76 71 69 69 71 72 71 73 74 77 81 83 85 90 93 98 101 99 100 102 99 99 100
69 71 72 74 75 77 80 81 81 82 84 85 85 88 95 97 97 99 99 94 92 93 93 92 91 89 87 85 85 85 81 78 81 84 84 86 89 93 96 94 87 79 72 68 67 69 75 83 87 92 97 96 97 100 99 100 100 96 98 101 100 101 101
77 79 81 83 85 87 87 85 85 86 87 87 87 92 98 99 99 101 99 95 94 93 91 89 85 84 84 84 85 81 75 79 89 92 94 98 101 101 98 92 89 89 87 82 75 69 70 74 75 78 80 78 78 78 78 83 88 88 90 95 99 99 98
85 86 86 88 90 92 92 90 88 88 90 89 87 91 97 97 97 99 99 98 96 91 88 86 83 83 85 87 88 85 79 83 93 96 98 100 98 98 96 92 93 98 100 100 95 82 71 65 61 61 62 58 56 57 60 70 79 80 79 81 86 89 95
90 90 87 88 92 93 94 94 91 89 90 88 85 88 95 99 100 101 102 99 94 89 88 88 88 88 86 84 84 80 77 83 91 90 87 88 92 98 100 98 100 102 100 101 101 95 88 81 73 69 66 61 58 58 62 67 68 67 68 72 77 80 90
92 92 88 87 90 92 91 92 92 89 87 85 84 84 90 99 101 97 95 92 88 90 94 94 93 90 85 81 78 73 75 90 96 87 83 90 99 102 100 99 100 101 100 101 100 96 94 89 82 75 71 67 64 61 61 60 57 58 64 71 77 80 89
93 93 90 86 87 88 88 89 89 87 84 83 84 83 84 91 93 90 91 93 96 99 100 98 97 95 92 88 83 81 87 93 90 85 91 99 101 99 98 100 102 101 98 93 87 83 80 77 73 70 66 62 60 58 58 59 58 61 67 71 74 80 93
95 95 91 85 83 83 84 85 85 85 84 82 81 78 76 78 82 89 96 100 102 102 101 100 101 97 89 83 83 89 95 93 89 93 99 100 98 99 101 101 98 91 83 76 71 68 67 65 63 63 62 62 65 66 67 68 68 68 72 74 72 75 86
96 95 91 84 80 78 81 84 84 83 81 78 76 75 72 70 73 84 95 100 101 100 97 95 90 82 78 81 90 99 101 99 99 102 102 100 100 100 98 90 81 73 68 65 64 63 63 63 65 68 70 73 75 76 75 76 76 74 75 77 75 75 78
96 93 90 85 81 78 79 82 82 80 77 77 78 79 77 71 70 76 84 87 86 83 79 76 73 74 82 91 95 96 95 94 94 93 90 89 86 82 78 73 69 68 69 67 67 66 68 70 74 78 81 82 83 84 83 83 82 79 78 80 84 89 91
94 90 87 85 84 83 82 80 79 79 80 83 86 86 81 78 78 82 85 83 77 74 75 79 82 84 86 84 79 77 78 78 78 76 76 76 75 74 75 76 77 78 76 73 72 75 77 79 82 85 88 88 89 88 88 88 87 83 83 88 93 98 99
92 88 86 87 87 85 83 80 81 85 90 92 92 88 84 85 88 91 93 90 86 86 90 95 95 91 86 82 80 82 84 85 85 86 86 86 87 87 87 87 85 82 79 80 82 84 86 88 90 92 92 92 92 91 89 91 92 92 94 97 99 100 98
91 87 87 91 92 90 89 89 92 96 98 96 92 90 91 93 94 96 98 98 96 98 99 97 94 91 90 91 93 94 96 97 99 99 97 95 94 92 90 87 83 81 84 88 90 93 94 95 95 95 95 94 94 93 91 92 96 99 101 101 100 100 97
92 88 92 97 98 97 98 99 99 100 100 97 95 96 99 100 98 99 101 100 100 100 99 97 97 97 98 99 99 100 102 101 99 97 94 91 89 87 85 82 81 84 89 91 94 97 99 98 97 96 96 95 93 93 93 94 97 101 102 103 102 100 98
99 95 97 101 99 99 101 101 99 100 100 98 98 100 101 101 100 101 100 100 100 100 99 99 100 100 100 101 101 100 97 93 90 87 85 84 84 84 82 81 83 89 92 92 96 99 99 100 100 98 97 97 95 93 93 95 98 100 101 103 105 102 99
102 100 99 100 100 100 101 100 100 102 101 98 98 100 101 100 100 100 100 100 101 100 100 100 100 100 101 100 97 93 89 87 86 86 86 86 86 85 84 84 86 92 95 95 96 99 101 102 102 100 100 100 98 96 95 96 97 98 99 102 104 102 101
99 102 100 100 100 100 101 101 101 101 101 100 99 100 101 100 99 100 101 100 100 100 100 100 99 98 97 94 91 90 89 88 89 89 91 92 91 88 87 87 89 94 97 97 97 100 103 102 102 102 102 101 100 99 96 94 94 95 96 99 102 102 102
90 100 103 102 99 98 99 101 101 100 100 101 100 100 100 99 98 100 101 99 99 98 97 97 96 95 94 93 93 93 92 90 90 91 94 96 96 93 90 90 92 97 99 99 100 103 103 103 102 103 102 101 100 100 97 95 95 95 95 98 100 100 100
78 93 101 101 99 96 95 95 96 96 96 96 96 96 97 98 99 100 100 99 97 96 95 97 98 98 98 98 96 93 91 89 90 92 95 98 98 96 94 92 94 99 100 100 102 103 103 103 103 103 103 102 101 100 98 96 97 98 98 100 101 99 97
73 87 97 100 100 98 96 94 95 95 94 95 96 96 98 100 100 100 99 100 100 99 100 100 99 99 99 97 94 92 91 91 91 93 96 98 98 97 96 95 95 99 101 102 103 103 102 102 104 104 104 102 100 100 99 98 100 102 101 100 100 100 98
77 87 95 97 98 98 98 98 99 98 98 99 100 100 100 100 100 100 100 100 100 99 99 98 96 96 97 96 94 93 92 92 93 93 95 98 98 97 97 96 97 99 102 104 104 103 102 103 104 104 103 101 99 100 100 101 102 103 102 101 101 101 100

ECMWFFLT1_850_rhum_108.txt.gz
RH
20 21 22 23 24 25 26 28 29 32 36 39 39 39 39 39 41 44 48 50 50 48 47 48 49 49 49 52 53 53 55 55 56 56 54 54 54 55 59 61 67 72 60 41 37 43 49 50 47 45 43 40 39 39 37 34 31 29 26 25 24 23 23
20 21 23 23 24 25 27 29 31 34 39 43 43 42 42 42 44 47 50 53 52 50 49 49 50 50 50 51 53 54 56 56 57 59 58 60 64 67 71 75 76 80 78 61 44 47 56 55 51 51 49 45 41 42 40 35 33 32 30 29 28 27 25
21 21 22 23 24 25 27 30 33 36 41 44 45 45 46 45 47 49 52 55 55 52 52 51 50 50 51 52 54 55 57 59 58 61 66 71 77 82 83 85 84 84 86 77 61 57 63 64 58 56 58 53 45 43 42 36 32 33 34 33 31 30 28
21 21 21 22 23 25 28 31 33 37 40 44 48 50 50 49 49 51 54 56 56 53 52 51 50 51 52 54 57 58 58 61 63 68 77 84 88 90 89 87 85 83 83 82 74 67 69 71 66 61 63 60 49 43 42 38 35 36 37 37 36 36 34
21 21 21 22 23 25 29 32 34 37 40 45 51 55 55 53 52 53 55 56 55 52 49 50 50 51 54 56 58 60 63 69 76 82 90 94 93 92 90 87 85 82 81 82 80 75 73 76 75 69 64 61 54 45 42 41 41 39 38 39 42 43 41
21 21 22 22 24 27 30 33 36 38 41 46 54 58 58 56 56 56 56 54 52 50 49 50 51 53 56 59 62 68 76 84 91 95 97 96 92 89 88 86 84 82 82 82 82 80 80 83 84 75 65 59 53 49 49 50 46 41 40 45 50 50 46
21 22 23 23 25 28 31 35 38 40 42 46 51 55 56 56 58 57 54 51 50 50 51 53 55 58 61 66 74 83 91 96 98 97 95 91 88 85 84 83 83 82 83 83 83 83 85 87 84 74 62 54 55 60 61 59 57 54 49 50 52 49 46
22 22 23 24 26 30 34 37 40 41 44 45 48 52 53 54 55 54 53 53 55 59 64 67 69 70 74 83 91 94 96 96 94 91 88 84 82 82 83 84 85 85 86 86 87 88 88 87 82 70 58 53 63 74 70 64 73 75 61 51 48 44 44
22 23 23 25 28 33 36 39 41 43 45 46 48 50 49 51 55 58 62 66 70 74 78 81 81 81 83 88 92 93 92 88 84 82 81 81 81 84 87 89 90 91 90 90 92 91 89 90 86 73 65 65 72 81 81 78 82 77 59 50 49 42 40
23 23 24 27 32 36 39 42 44 45 47 49 51 53 57 65 70 74 80 84 87 89 87 86 85 83 85 86 86 87 85 82 81 82 84 86 89 91 94 95 96 96 96 96 97 92 91 98 97 83 78 80 79 84 89 84 76 67 57 58 61 50 39
23 24 26 30 36 40 43 45 47 48 50 51 54 62 74 85 91 95 97 98 99 99 97 95 92 89 91 92 90 88 87 87 89 91 96 99 100 100 100 100 100 100 99 100 99 96 97 103 102 92 90 92 90 88 85 75 70 71 72 75 78 70 54
24 25 30 36 41 45 47 49 51 52 53 55 62 78 92 96 97 100 102 102 103 102 101 100 99 98 98 97 96 95 93 94 96 97 100 101 100 100 99 96 95 97 100 102 101 100 100 101 101 100 98 95 89 83 78 74 75 79 85 90 91 87 73
25 28 35 42 47 50 52 55 56 57 59 61 66 80 92 93 90 94 99 102 102 101 101 100 100 100 99 98 99 99 98 99 99 98 97 96 95 94 91 85 81 83 91 95 98 102 102 100 100 98 91 83 77 76 78 79 79 79 88 98 99 96 88
27 33 42 48 52 56 58 61 64 65 67 70 72 77 85 88 92 97 101 102 102 101 101 101 101 101 101 100 101 101 101 101 100 98 96 94 91 86 82 78 73 70 72 75 80 87 86 83 84 81 77 73 72 75 78 82 87 88 94 101 102 102 99
32 40 49 54 58 62 64 67 71 73 76 79 81 83 87 91 97 101 101 101 101 101 101 100 99 100 100 100 100 100 99 98 96 94 91 88 84 79 76 75 73 71 71 68 69 72 71 71 72 72 74 73 73 77 82 90 98 98 99 102 100 99 99
39 47 54 60 65 68 70 71 76 80 83 85 86 88 90 92 95 98 98 97 94 94 95 95 93 94 95 97 97 95 95 95 93 90 85 80 77 78 80 79 77 76 75 76 79 77 72 72 72 73 79 82 85 92 97 100 102 100 101 102 99 100 100
46 54 61 66 69 73 74 73 77 83 85 86 89 92 95 97 96 96 97 97 96 97 96 92 89 89 91 94 96 95 93 90 86 82 79 77 78 83 88 87 80 75 72 74 81 79 73 78 87 91 94 96 99 101 99 98 98 95 97 100 100 101 96
54 61 66 70 72 77 79 76 78 84 87 87 89 94 98 100 99 99 99 99 100 100 98 94 90 88 92 95 94 91 86 79 77 79 83 89 93 96 100 97 89 83 78 76 79 77 72 76 83 85 84 83 82 80 77 80 82 82 86 92 93 90 84
61 65 69 72 74 79 82 82 81 85 88 88 88 92 98 100 100 100 99 99 100 99 97 94 88 88 93 93 89 88 86 81 84 92 97 100 101 101 101 100 97 96 95 94 95 93 87 79 72 66 62 59 58 59 61 67 73 77 82 84 81 76 78
66 69 69 71 76 80 84 86 85 85 87 88 87 89 96 101 101 100 100 101 100 99 97 92 88 90 92 89 89 92 90 85 88 93 96 100 103 102 101 101 100 100 101 101 101 101 100 95 87 79 72 66 63 64 67 69 72 76 77 76 72 68 73
68 70 69 72 79 82 84 87 88 85 85 86 86 85 90 98 100 100 101 100 97 96 96 93 90 89 88 88 90 86 79 80 85 87 90 99 103 101 99 100 101 101 101 101 101 100 101 100 98 95 91 87 83 78 76 74 73 72 69 67 67 65 68
67 70 70 73 78 80 82 86 88 85 82 83 83 80 84 93 98 99 101 100 97 98 99 97 94 92 90 88 83 77 78 88 93 90 94 102 103 100 100 101 102 101 100 100 100 100 101 101 100 97 93 89 84 78 73 69 66 63 63 64 67 71 76
66 70 70 69 71 74 78 83 84 82 79 80 81 80 81 86 89 93 98 100 100 102 102 101 101 99 94 87 81 84 92 99 98 95 98 101 100 101 102 100 100 101 101 101 101 100 99 97 94 90 84 78 73 68 63 62 61 62 66 72 76 80 85
65 69 67 65 63 65 74 81 80 78 78 79 81 82 81 80 79 83 88 92 96 100 100 100 99 96 92 90 92 97 101 101 100 100 101 100 100 101 100 98 99 100 98 96 94 91 88 86 81 78 74 69 64 62 62 64 67 70 76 82 84 84 85
63 66 65 64 62 64 73 80 78 77 80 82 83 82 81 76 71 72 77 79 81 83 83 84 85 87 91 96 99 100 100 98 97 97 96 96 95 94 92 90 89 88 86 83 81 79 77 75 72 70 67 63 62 64 68 73 76 79 83 88 89 87 84
64 66 66 65 65 69 76 80 78 78 80 80 80 79 75 72 70 72 75 75 74 73 73 75 78 81 86 86 84 83 84 83 80 80 80 80 80 79 80 79 79 81 81 80 79 78 76 75 74 71 68 66 67 72 76 82 85 86 85 87 90 88 81
65 67 68 68 70 75 81 82 80 78 78 80 83 81 77 78 81 82 80 78 77 79 82 86 89 92 92 87 79 76 76 76 76 78 79 80 81 83 85 88 91 92 90 87 84 81 80 79 77 73 70 71 75 78 82 89 93 90 86 87 92 91 83
68 69 69 72 76 80 84 83 79 80 85 90 92 90 89 91 92 89 88 90 91 92 94 96 97 97 95 91 86 85 86 87 88 90 90 90 92 94 97 98 96 92 88 86 84 84 84 82 79 75 75 79 83 84 88 94 96 93 89 89 94 95 88
70 69 73 80 85 89 91 88 83 87 94 98 97 96 98 100 100 98 99 100 100 99 100 99 97 96 95 95 95 95 96 96 96 96 96 97 99 100 98 94 89 85 84 85 86 88 87 85 82 81 82 85 87 89 94 97 96 94 92 91 94 94 90
73 77 86 94 96 97 99 97 94 97 100 100 99 99 101 102 101 101 102 101 101 101 101 100 99 99 100 100 100 100 99 99 99 99 100 100 98 95 91 87 84 85 86 88 90 90 88 86 86 86 87 90 91 93 96 97 97 96 95 94 95 93 90
78 84 95 102 101 100 101 100 99 100 101 101 100 100 101 101 101 101 102 101 101 101 101 101 101 101 100 100 100 100 100 100 101 101 99 96 93 90 88 88 87 87 88 91 92 92 90 89 89 90 92 93 95 97 98 99 98 97 96 96 97 95 92
80 83 89 94 96 99 101 101 101 101 101 101 100 100 101 102 99 99 101 101 101 100 101 101 101 101 101 101 101 101 101 101 100 98 96 94 92 91 91 89 88 88 90 92 93 93 93 91 92 94 96 96 98 100 100 100 100 98 96 97 97 96 97
82 82 83 83 84 87 92 96 101 102 101 102 102 102 103 101 96 95 98 100 101 101 102 102 101 101 101 101 100 99 98 98 97 96 96 96 95 93 91 89 89 90 90 92 95 97 97 96 96 98 99 99 100 102 102 101 101 98 97 98 97 96 98
80 80 80 77 75 76 82 91 98 101 101 101 100 99 99 98 96 96 99 101 101 101 101 101 100 100 99 99 98 97 97 97 98 99 98 96 94 91 90 88 88 90 91 93 97 99 99 100 101 102 102 102 101 102 103 102 101 99 97 98 98 98 98
76 76 77 75 72 73 82 92 99 99 98 98 98 98 98 99 99 100 100 100 101 101 101 100 99 99 99 99 99 100 99 99 98 97 95 93 91 90 89 88 88 90 91 94 97 99 100 102 104 105 106 106 104 103 103 102 100 99 99 100 100 100 99
74 74 75 73 72 78 89 98 101 100 99 100 101 101 100 100 100 100 100 100 100 100 101 101 100 101 101 101 100 99 97 96 95 93 92 91 89 88 88 88 89 90 91 94 97 99 101 103 105 106 107 108 106 106 105 104 102 101 102 103 103 101 100

ECMWFFLT1_850_rhum_114.txt.gz
RH
90 91 88 79 70 66 65 65 59 38 16 11 15 17 18 20 22 24 25 27 30 32 34 36 37 37 38 39 44 48 53 60 63 70 88 97 90 88 89 85 87 93 91 86 87 84 75 75 78 77 78 81 82 88 94 92 89 81 67 54 41 33 32
90 91 87 77 69 66 65 66 56 33 14 12 16 18 19 21 22 24 26 28 30 32 35 40 42 40 41 44 48 48 46 54 65 75 91 101 98 96 95 90 90 95 96 97 97 89 75 74 78 76 77 81 83 84 88 93 94 88 82 75 55 36 32
91 92 86 76 69 66 66 65 50 26 13 13 17 19 20 22 23 24 25 26 29 32 37 44 47 45 46 47 51 52 49 55 71 80 85 89 91 96 96 93 96 99 99 100 101 93 82 79 80 80 82 85 84 87 92 95 95 91 88 84 68 44 33
93 91 83 74 69 66 67 63 43 20 13 15 17 20 21 22 24 25 25 25 28 32 37 45 49 49 51 54 57 62 60 61 71 78 78 76 78 86 90 90 95 99 100 101 101 96 89 89 91 90 91 93 91 91 94 95 97 97 93 91 87 65 39
93 90 82 74 69 67 68 56 32 15 14 17 18 20 22 22 24 24 25 25 27 30 35 41 46 47 52 58 64 69 66 60 62 69 73 76 78 81 87 91 94 99 101 100 101 98 91 93 100 100 97 95 93 92 92 93 96 96 95 96 94 75 46
94 89 81 73 68 69 64 44 22 15 16 17 19 22 23 23 24 24 24 25 26 30 35 39 43 46 50 54 58 61 58 54 54 58 61 67 72 74 80 85 89 95 100 101 103 103 97 97 103 105 102 97 95 94 93 95 97 95 97 98 91 81 67
93 86 77 71 70 68 54 30 17 16 17 18 20 22 23 23 24 24 25 25 27 31 37 40 44 46 48 49 51 52 53 52 55 58 60 64 69 72 76 77 77 79 83 88 96 102 102 103 103 103 102 97 96 96 95 97 97 93 93 95 92 94 92
90 82 74 71 69 60 40 21 16 17 17 19 20 22 23 24 25 25 26 27 30 35 40 43 45 48 50 53 56 58 60 61 65 70 74 77 81 82 83 84 82 81 82 87 96 102 104 104 104 103 102 97 96 97 97 96 95 92 90 90 91 94 95
85 76 71 70 65 47 27 16 17 17 17 19 21 22 24 24 25 26 26 29 35 41 46 49 53 59 64 69 73 76 78 78 80 84 87 91 94 95 93 92 92 93 96 100 102 104 104 104 104 103 101 98 97 97 97 95 93 94 92 88 87 88 89
77 72 71 68 53 32 18 16 17 17 18 21 22 23 24 24 25 26 29 36 43 49 54 62 70 77 81 84 86 87 88 87 86 86 88 90 94 98 98 97 98 97 100 103 104 105 105 106 106 104 100 99 99 98 98 98 97 96 93 89 84 85 87
72 71 69 57 36 20 16 17 16 17 19 21 23 24 24 24 24 27 35 45 51 55 64 73 78 80 83 87 88 87 86 87 85 85 86 88 92 96 96 95 96 94 94 98 101 102 103 104 104 99 96 99 101 100 100 100 100 99 97 94 91 90 90
71 69 58 39 22 16 17 17 16 18 20 22 24 24 27 39 52 57 62 68 68 68 76 85 87 86 88 90 90 89 89 89 88 89 92 93 95 97 97 95 94 93 93 94 97 99 100 102 103 100 99 101 103 104 104 102 102 101 99 99 100 100 95
70 58 39 23 17 17 17 16 17 19 21 23 24 24 35 62 86 93 92 93 91 89 92 96 97 97 98 95 92 93 93 92 91 93 96 98 99 100 102 100 97 97 99 98 98 101 100 97 98 101 101 100 101 102 103 103 102 99 99 100 99 97 94
55 36 22 17 17 17 17 17 18 20 22 24 24 24 36 61 82 91 93 95 98 100 100 100 100 101 102 99 96 98 96 91 91 94 98 102 103 104 105 103 100 100 102 101 99 101 101 98 98 101 101 98 101 104 101 99 94 87 89 93 89 87 93
31 21 18 17 17 17 18 18 19 21 22 24 24 25 37 61 82 90 90 90 95 98 97 99 102 101 101 101 100 100 97 91 91 97 101 103 103 103 104 104 102 100 99 97 94 94 96 96 96 98 98 96 96 94 85 77 72 69 74 84 90 96 102
20 18 17 16 17 18 19 19 19 22 22 24 27 32 49 76 92 95 93 92 91 89 87 92 97 97 98 99 97 97 96 92 92 96 99 101 102 102 103 102 96 93 95 97 96 93 91 91 89 89 89 88 85 82 79 77 77 79 84 92 99 103 103
19 17 15 17 18 19 20 19 20 23 23 26 34 44 60 77 82 82 83 80 78 80 83 86 87 87 88 86 82 83 86 87 91 97 100 102 101 101 101 94 83 79 86 95 99 97 95 95 93 89 84 82 84 88 93 97 98 97 98 100 101 101 100
17 16 17 18 18 19 21 20 21 23 26 33 45 57 66 74 77 78 79 76 77 84 92 92 89 89 87 78 70 72 76 81 89 96 99 101 101 102 100 89 77 73 76 81 87 89 91 92 91 89 87 88 93 98 101 102 102 101 101 101 101 101 101
16 18 18 18 19 20 21 21 22 25 32 44 56 63 67 73 78 77 74 73 74 82 92 94 87 82 78 70 66 69 76 85 90 93 96 97 99 104 100 85 76 76 75 77 80 82 84 84 84 87 90 92 95 97 98 98 98 96 95 95 98 102 103
17 18 19 19 20 21 21 23 25 30 42 54 59 61 65 72 75 70 67 69 75 85 96 97 90 83 74 68 70 75 83 95 100 98 99 100 100 103 99 87 82 83 82 83 87 88 85 82 79 77 75 74 75 76 76 77 77 76 76 80 90 101 104
18 19 20 20 21 21 22 25 29 38 50 57 57 58 63 69 70 66 67 72 79 91 100 99 95 89 77 69 73 76 83 96 99 93 96 102 101 97 92 88 91 94 94 95 98 98 93 86 81 76 70 68 69 69 68 68 69 72 75 79 90 100 103
19 20 21 21 21 22 23 27 35 44 52 56 57 59 62 67 67 66 72 79 84 92 99 97 92 86 76 73 71 68 77 95 96 88 89 96 97 95 92 93 99 102 102 101 101 100 98 93 90 87 84 81 79 77 79 82 84 86 89 90 96 101 102
21 22 22 22 22 23 26 32 40 48 53 56 59 60 62 66 68 68 78 91 96 97 100 100 96 92 90 88 79 72 83 98 98 91 87 86 91 99 100 99 102 103 101 101 101 101 101 100 97 96 96 94 92 92 95 97 97 97 97 95 94 94 93
22 23 23 23 23 25 30 37 43 50 55 58 60 62 64 67 69 70 78 92 100 101 102 102 101 99 99 97 91 88 94 99 96 93 91 90 97 103 102 100 101 101 100 100 100 99 99 100 99 100 100 100 98 97 95 92 89 86 84 81 80 79 79
24 24 24 24 25 29 36 43 47 50 56 60 62 64 66 69 73 73 76 84 92 96 96 95 93 93 96 98 98 98 99 100 99 97 96 98 102 102 101 101 102 102 101 101 101 101 101 100 99 97 95 92 87 84 81 78 78 77 75 74 73 74 74
24 25 25 25 28 34 42 49 52 53 57 62 64 67 71 75 78 78 78 79 80 82 83 81 79 81 83 84 83 82 83 87 91 92 92 97 101 102 102 103 102 100 99 97 95 94 92 90 88 85 83 81 78 77 77 77 78 78 78 77 75 75 75
25 26 27 28 34 42 50 55 56 55 58 64 71 76 79 81 81 81 80 80 80 81 81 81 81 82 84 85 84 83 82 82 83 81 80 83 87 89 90 91 90 88 86 83 82 82 81 81 82 82 83 83 81 80 80 80 81 81 80 80 80 81 79
26 27 28 33 41 50 58 60 59 58 64 74 83 86 84 80 79 80 82 83 86 90 93 93 95 97 97 99 99 98 96 93 90 86 82 80 80 79 79 80 80 80 79 79 80 82 83 85 87 89 89 87 85 84 83 83 84 85 84 84 86 87 84
28 30 35 44 52 59 65 66 64 65 73 82 86 87 84 81 82 88 91 92 94 99 102 101 101 102 101 101 101 100 98 95 92 90 87 86 85 85 85 86 87 87 88 89 90 92 94 95 96 95 93 90 88 87 87 87 88 88 87 88 90 91 88
32 36 43 51 56 62 71 75 72 73 81 89 94 94 92 92 93 96 98 97 97 100 103 102 100 101 100 99 98 97 96 95 94 93 92 91 92 94 96 97 98 99 99 99 101 102 103 102 100 97 94 92 91 90 90 91 91 90 90 91 94 95 91
38 45 58 69 72 77 85 90 87 84 89 97 101 100 99 100 99 96 98 101 101 100 100 100 100 101 100 99 98 97 97 98 99 98 98 98 99 100 100 101 102 102 103 102 102 102 102 101 98 95 93 92 92 92 92 92 92 93 96 98 99 98 94
45 57 76 89 92 93 98 100 99 98 99 101 101 100 101 101 98 94 95 100 102 102 102 101 100 100 100 100 99 100 100 100 101 100 100 101 101 100 100 101 101 101 101 102 102 102 101 99 96 94 93 91 91 91 91 92 95 98 101 104 103 99 96
42 50 61 67 68 73 80 84 86 88 90 91 91 92 93 92 89 86 86 90 92 93 97 100 100 100 102 102 102 101 101 101 102 102 102 102 102 101 101 101 100 101 102 103 103 101 99 97 94 92 90 89 89 91 92 92 94 97 100 104 104 101 99
37 40 45 49 52 57 62 65 68 71 75 78 80 81 82 83 80 78 80 88 95 95 96 100 102 101 101 102 102 102 101 101 101 102 101 101 101 101 101 101 101 102 103 103 102 100 97 95 92 88 88 88 89 91 92 92 94 98 101 105 106 104 103
43 46 49 53 56 59 62 65 67 69 71 74 75 77 81 84 85 82 81 87 96 99 99 101 102 101 99 99 99 100 101 102 102 102 102 103 102 101 101 101 101 102 102 101 101 99 95 91 87 85 86 89 90 91 93 95 98 102 104 105 106 105 104
54 56 58 60 61 63 67 69 70 70 71 72 74 81 90 95 96 94 88 86 89 94 96 97 99 100 99 99 98 99 101 102 104 104 104 103 102 100 101 101 100 100 102 102 101 97 91 87 85 84 86 89 91 93 94 95 96 98 99 100 102 104 105

ECMWFFLT1_850_rhum_117.txt.gz
RH
61 62 63 66 69 72 77 81 83 85 87 84 76 69 65 60 50 36 24 17 18 22 23 26 29 28 27 26 26 29 35 42 48 51 56 63 67 70 74 73 73 75 75 74 74 74 72 67 64 64 64 65 65 63 63 63 63 67 71 72 73 74 71
63 64 65 67 70 73 78 83 85 88 90 86 77 70 67 63 52 36 24 19 20 22 24 28 31 31 31 29 28 30 32 35 42 50 59 69 74 75 75 75 72 70 74 78 78 77 75 71 70 71 69 67 63 60 61 65 67 71 75 76 73 74 74
66 67 68 70 72 76 80 84 88 91 91 86 78 72 69 65 54 36 23 20 21 22 25 30 33 33 34 34 34 34 33 36 41 44 54 66 75 77 76 78 79 77 78 81 83 83 81 79 78 75 71 67 64 64 66 70 75 77 80 80 81 82 80
70 70 72 74 76 80 83 86 91 92 90 86 79 75 72 65 51 35 24 20 20 21 23 28 33 35 35 38 43 42 39 42 46 49 66 82 87 89 88 85 87 85 82 81 83 84 86 87 86 81 74 69 70 73 75 77 80 83 83 83 86 88 86
75 75 76 78 80 82 86 89 92 92 89 85 79 76 73 64 49 33 24 21 20 21 22 24 28 31 35 43 50 49 45 46 48 56 79 94 94 95 97 94 95 94 90 87 85 85 86 88 89 86 81 77 80 84 84 83 83 84 85 87 88 88 87
79 80 80 82 84 86 90 92 93 92 89 84 79 76 72 62 46 31 23 21 20 21 22 23 25 27 34 42 47 48 51 55 55 58 73 87 90 92 96 96 96 97 97 98 97 95 95 94 93 92 91 88 89 92 91 88 85 83 85 90 91 89 86
84 84 85 86 88 91 92 93 92 90 88 84 79 77 71 57 40 29 24 22 21 22 22 22 24 27 32 37 39 44 52 58 61 61 64 76 85 89 92 91 87 89 94 98 99 100 100 99 98 97 98 95 94 96 94 90 88 85 85 88 88 86 84
88 88 89 90 91 93 93 92 91 90 87 83 80 77 68 50 35 26 23 23 22 22 23 23 24 25 28 30 33 41 49 53 57 62 61 68 82 90 91 86 78 80 89 94 98 101 99 98 100 100 100 98 97 97 94 90 88 86 86 88 88 86 84
93 92 93 93 93 94 93 92 91 89 86 82 80 73 57 39 28 24 23 24 24 24 24 24 25 25 25 28 32 40 49 50 53 59 62 67 80 89 91 88 82 84 93 97 100 103 101 100 101 101 101 100 98 96 93 88 86 86 88 88 87 87 84
96 96 96 95 96 95 94 92 91 88 85 82 75 60 41 30 25 24 23 22 22 24 25 24 24 24 23 28 36 43 50 57 63 70 74 77 83 89 93 95 95 97 102 103 103 102 101 101 101 101 102 101 99 96 92 89 88 87 89 90 90 91 89
100 99 97 97 97 95 93 92 90 87 83 75 60 41 29 25 23 23 22 23 24 23 23 23 23 24 28 35 46 55 62 68 75 81 85 87 88 91 96 99 101 103 103 102 103 103 101 101 100 100 101 100 100 98 95 93 92 90 92 92 92 94 93
101 100 99 99 96 93 93 91 87 84 76 60 42 31 29 27 24 22 18 18 21 21 23 25 24 29 38 45 53 66 76 80 82 84 87 89 89 90 95 99 101 103 103 102 102 102 101 102 102 102 102 101 101 101 100 98 97 96 97 97 98 100 97
99 99 98 97 94 93 91 87 84 77 62 43 31 29 31 36 46 53 46 35 28 23 23 26 32 45 55 57 66 80 87 88 88 89 89 90 93 95 97 98 96 97 102 102 101 101 101 102 102 102 102 102 102 102 101 100 99 100 100 98 98 99 97
96 97 97 95 93 90 86 82 77 62 43 32 29 27 30 44 64 76 78 78 69 55 47 46 57 74 76 73 82 89 85 83 85 88 88 88 92 96 99 100 98 97 102 102 100 101 101 100 101 102 102 101 100 100 101 102 100 98 97 96 95 94 96
96 96 95 91 87 84 81 74 61 43 31 28 25 22 31 53 72 80 88 101 98 88 87 87 89 95 93 90 92 87 80 79 81 86 90 88 88 94 100 103 102 100 102 103 101 101 101 100 100 99 98 95 90 91 96 97 91 85 90 98 100 99 102
94 92 88 85 82 78 69 56 42 31 28 24 20 21 30 50 70 80 88 91 79 75 91 103 101 99 99 100 99 94 92 93 91 93 95 92 91 96 100 100 98 96 98 102 103 102 100 100 99 94 91 88 84 84 88 89 87 88 95 102 102 101 102
88 85 83 79 71 59 47 38 31 27 22 19 20 22 25 34 51 69 81 80 70 73 91 100 97 96 98 94 90 87 86 87 92 100 101 97 98 101 98 93 89 87 88 93 99 99 94 91 92 89 85 82 82 86 91 94 98 101 102 101 100 100 101
82 78 71 60 48 39 34 30 26 21 18 19 22 24 30 41 57 75 84 79 72 76 83 80 72 75 79 73 66 68 67 67 81 100 104 100 100 103 99 91 85 83 80 77 80 84 83 84 88 91 90 87 88 93 99 101 102 101 100 100 101 101 100
69 58 48 40 35 32 29 24 19 17 18 21 22 24 37 57 77 88 82 71 71 77 77 70 59 56 62 62 59 65 69 70 81 98 104 100 99 102 100 91 85 83 77 69 65 66 69 75 80 86 90 91 93 97 100 102 102 102 102 101 100 100 99
48 41 36 34 31 27 22 19 18 18 19 21 23 25 35 57 82 90 76 70 80 81 72 67 62 55 57 62 64 66 71 79 92 100 101 101 101 101 99 92 88 84 76 71 69 65 65 70 73 78 84 85 86 86 85 87 91 92 95 99 101 103 102
39 37 34 30 25 21 18 17 17 18 19 21 23 26 32 49 73 83 76 75 82 75 61 60 63 62 60 63 68 69 67 77 96 103 101 102 102 96 91 89 92 91 86 85 87 85 83 84 84 84 86 85 84 82 77 75 74 74 77 81 85 91 97
37 33 29 24 21 18 17 17 18 19 21 23 24 25 29 36 50 64 73 80 80 70 61 61 64 66 66 67 73 72 63 68 90 102 100 99 99 93 89 90 94 96 96 99 101 100 98 96 92 89 85 82 79 77 73 72 70 67 65 66 69 74 83
32 28 24 21 19 18 17 17 19 19 21 23 25 27 31 39 48 62 79 89 83 68 64 70 74 72 71 72 74 73 71 80 96 102 96 91 94 97 98 99 100 100 101 102 101 101 101 100 98 97 94 90 83 76 75 82 87 80 70 66 68 72 75
27 24 22 20 19 19 19 19 20 21 22 24 26 30 38 48 56 64 78 92 93 82 78 88 89 80 76 81 85 87 91 96 99 97 93 92 97 103 103 102 102 102 102 102 101 100 100 100 100 100 100 100 98 94 92 96 98 92 83 80 81 83 84
24 22 22 21 20 20 20 21 22 22 23 25 29 37 48 57 62 63 67 78 85 82 83 90 91 84 86 94 99 100 102 102 99 96 95 97 102 103 101 101 102 102 102 102 101 101 101 101 101 101 102 101 102 103 102 100 98 96 94 93 91 87 85
25 24 23 22 22 22 22 23 24 25 25 28 33 41 51 61 65 65 65 68 70 71 76 83 86 85 87 90 92 92 93 94 96 96 95 97 100 102 101 100 100 101 101 101 100 100 102 102 101 101 102 102 101 101 99 95 94 94 93 91 90 87 84
25 25 24 24 25 25 25 25 25 26 28 32 39 47 55 62 66 69 71 72 72 73 76 79 81 81 82 83 83 83 82 82 84 86 86 85 84 85 87 88 91 96 101 103 103 101 101 103 102 100 100 101 98 94 91 89 91 94 94 95 98 98 96
27 25 25 25 26 27 27 28 28 30 34 40 48 55 62 67 72 76 78 78 78 80 83 86 87 88 89 91 90 87 84 82 81 81 80 78 77 77 77 77 79 84 89 91 92 91 92 95 99 100 100 100 98 97 96 96 98 101 102 102 102 102 99
29 27 27 29 30 30 31 31 32 35 42 52 61 66 69 74 78 82 85 85 88 92 95 97 98 98 98 100 99 96 93 90 89 91 92 91 91 94 93 88 83 82 83 84 85 87 91 96 101 103 103 104 104 103 102 101 102 104 104 102 101 100 97
29 29 30 30 30 31 33 35 40 49 63 78 85 85 87 90 92 94 94 94 97 101 102 101 101 101 100 101 101 101 99 97 96 99 100 99 100 101 100 94 86 84 87 90 92 96 100 103 105 105 105 104 103 102 101 102 103 102 100 100 100 100 98
29 30 35 42 46 45 45 50 60 72 85 91 90 88 92 98 100 101 101 99 99 100 101 100 100 100 100 100 100 100 100 100 101 101 100 100 102 102 99 95 90 88 89 92 95 100 103 104 104 103 103 102 101 102 103 102 102 99 97 97 100 101 100
31 34 46 70 87 88 84 88 94 99 101 99 95 94 100 103 101 101 102 101 100 100 101 102 101 100 100 100 101 101 101 101 103 103 101 102 104 103 102 101 99 97 96 95 98 101 103 102 101 100 101 101 101 102 103 100 98 96 95 97 99 101 100
34 35 43 60 75 78 75 76 81 84 87 88 88 91 96 97 95 92 91 94 99 100 98 99 100 101 101 100 100 101 101 100 101 102 102 104 105 105 105 104 102 101 101 100 100 101 102 102 101 101 103 103 101 101 99 97 95 95 96 100 103 103 102
44 45 47 50 53 55 54 54 56 59 61 62 64 66 70 74 76 73 72 78 88 93 92 92 96 100 102 102 101 100 100 100 100 101 101 102 102 102 103 103 102 102 101 101 101 102 102 102 102 102 103 102 100 99 98 96 95 94 95 99 101 99 99
53 53 55 56 56 58 60 61 62 63 63 64 65 64 66 68 70 69 67 69 77 87 94 98 100 100 100 101 101 101 100 101 100 100 100 101 101 101 102 104 104 103 102 102 103 103 102 103 103 102 100 99 99 99 98 95 93 92 94 98 101 101 101
59 57 58 60 62 66 69 71 73 74 75 77 77 78 82 86 85 85 84 82 84 92 99 101 102 101 101 101 101 101 101 102 101 101 100 100 100 101 102 103 103 102 101 102 103 103 103 103 102 100 98 98 98 96 94 90 87 87 90 94 97 98 97

ECMWFFLT1_850_rhum_123.txt.gz
RH
52 52 52 52 51 51 49 48 48 47 47 48 48 49 50 51 53 54 55 56 58 60 61 62 64 65 66 67 69 74 76 73 64 52 41 31 25 21 18 17 18 17 16 18 21 22 21 21 23 23 24 23 23 22 22 24 26 27 28 28 28 29 28
52 53 53 53 53 52 51 49 48 47 47 47 47 48 49 50 52 53 54 55 57 59 60 62 65 66 69 73 77 82 82 77 67 54 43 35 28 24 20 18 18 18 18 19 21 23 23 23 25 26 26 26 25 25 24 25 25 27 29 28 30 32 32
52 53 54 54 54 53 51 50 49 48 47 47 47 48 48 50 51 51 53 55 56 59 60 62 65 68 73 77 82 87 85 78 68 56 46 38 32 26 21 19 18 19 20 20 22 26 25 24 26 28 30 30 30 31 30 30 30 32 32 30 33 35 34
53 55 55 55 55 54 53 52 50 49 48 47 47 48 48 49 51 51 53 55 57 59 61 63 66 70 75 80 86 90 87 78 68 59 49 40 33 28 23 21 20 21 22 24 27 30 29 28 29 31 34 35 37 38 37 37 37 37 36 34 37 40 37
54 55 56 56 56 55 54 53 52 51 50 49 48 49 49 50 52 53 55 56 59 61 62 65 68 72 77 84 90 92 88 79 70 61 51 41 34 30 26 23 23 23 26 31 34 34 33 33 33 34 40 43 42 41 41 43 41 39 41 41 41 42 38
55 56 57 57 57 57 57 56 55 54 53 52 51 51 52 53 54 56 57 59 61 63 65 67 71 76 82 88 93 94 87 79 72 62 51 42 36 32 28 27 26 27 32 36 39 40 40 40 38 39 44 48 48 46 47 50 48 44 46 47 43 41 41
57 58 58 59 59 60 60 60 59 59 57 56 56 55 56 57 58 60 61 63 64 66 68 71 75 80 86 92 96 94 87 80 72 61 50 43 38 34 31 30 30 33 38 41 44 46 46 45 43 45 49 52 53 53 54 56 56 51 49 49 46 46 49
60 61 61 62 63 64 64 64 63 63 61 60 60 60 60 61 62 64 66 67 69 71 73 76 81 86 91 97 98 92 86 80 70 59 50 43 39 36 34 34 35 38 41 44 47 49 49 49 50 50 51 53 57 57 53 53 57 57 56 57 57 55 57
63 64 65 66 67 67 67 67 66 66 65 64 64 64 64 65 67 68 70 72 74 77 80 84 88 92 96 100 98 92 86 78 69 59 50 44 40 39 38 38 39 41 43 46 49 49 51 54 55 54 51 49 52 54 53 55 62 65 64 67 67 64 63
67 68 69 70 70 70 71 70 70 70 69 68 68 69 69 71 73 74 76 78 81 84 87 91 94 97 100 101 96 91 86 78 68 59 51 46 43 41 41 42 43 43 44 46 48 48 51 54 53 51 50 48 49 54 59 65 71 72 71 75 78 73 65
73 74 74 75 75 75 75 75 75 75 74 74 74 75 76 78 79 81 83 85 88 91 93 97 99 100 101 101 96 91 86 77 68 60 54 51 49 47 46 45 46 46 46 47 48 46 48 52 50 47 50 53 54 57 65 71 77 80 79 82 86 83 72
81 82 83 83 82 82 82 82 82 81 81 82 82 82 84 85 87 89 91 93 95 97 99 100 101 101 101 100 96 91 85 76 67 61 57 55 55 54 52 50 50 49 47 48 49 48 46 47 46 48 54 58 58 61 70 78 84 87 87 88 91 92 83
89 90 92 91 91 91 90 90 90 89 89 90 90 92 93 93 95 96 97 99 100 101 101 101 100 101 101 100 96 90 82 73 65 60 57 57 58 59 58 57 56 57 58 55 51 48 45 44 49 55 57 61 68 75 83 89 92 93 95 96 93 88 81
93 95 97 98 98 98 97 97 97 96 97 97 97 99 99 99 100 100 100 102 101 100 101 101 101 102 102 99 94 85 76 68 61 58 57 57 58 58 56 53 55 67 80 80 70 58 46 46 59 67 66 73 84 87 88 91 92 93 96 93 86 81 81
91 93 95 98 100 100 100 100 100 99 100 100 100 100 100 100 101 100 101 101 101 101 101 100 101 103 101 95 84 74 67 61 58 56 54 54 54 53 53 51 50 55 65 70 73 71 65 64 69 66 62 69 77 78 80 83 84 88 93 92 91 92 91
88 90 93 96 99 101 101 100 100 101 101 101 100 99 100 101 101 100 100 100 100 101 101 101 102 101 97 89 79 73 68 63 61 61 59 58 54 49 48 49 48 50 53 54 57 64 73 76 75 71 70 76 81 81 81 83 86 91 97 100 102 98 90
87 90 93 96 99 101 101 100 100 101 101 100 100 100 100 101 100 100 100 99 100 100 100 101 101 100 98 93 85 81 78 75 75 72 67 63 57 51 51 50 51 57 61 58 58 69 84 90 86 86 89 90 93 94 91 93 97 99 99 101 104 101 92
87 89 93 96 99 101 101 102 101 101 101 100 100 101 101 100 100 101 100 100 100 101 100 101 100 100 101 97 91 87 85 86 91 89 81 74 69 72 77 72 65 62 58 56 63 78 94 99 95 95 96 94 96 98 99 101 101 100 101 103 104 103 99
87 90 94 98 100 101 101 101 101 101 101 101 100 101 101 100 100 100 100 101 100 100 100 100 100 100 101 100 97 92 87 89 97 100 97 93 92 96 93 78 66 64 63 64 67 69 74 79 81 87 94 96 98 99 101 103 101 99 101 102 102 101 102
88 90 94 97 99 100 100 100 99 99 99 100 100 101 100 101 102 101 100 100 100 101 101 100 101 100 100 101 100 99 98 93 85 81 83 90 98 102 93 79 74 76 75 75 76 73 72 71 69 72 78 81 82 85 91 97 101 102 101 100 101 100 99
89 91 93 94 94 93 92 90 88 87 88 89 90 90 90 92 95 99 101 100 99 101 100 101 102 100 100 101 98 97 95 80 65 69 81 90 98 100 93 90 92 92 90 91 89 87 86 84 79 77 77 76 73 72 74 77 82 92 98 100 101 102 101
90 90 90 88 86 84 83 82 80 78 77 76 74 73 71 73 81 91 98 100 101 102 99 100 101 98 97 96 89 84 72 49 42 60 76 84 94 99 97 98 101 99 99 101 99 96 95 93 88 82 80 81 79 74 70 68 66 71 79 83 86 89 90
89 88 87 86 86 84 82 78 73 69 65 62 59 58 57 61 77 95 102 100 99 100 100 101 99 94 90 86 83 84 68 40 33 46 53 60 77 87 89 95 101 102 101 101 101 101 99 93 88 83 80 81 83 81 78 74 68 65 64 64 64 64 66
93 93 91 88 82 75 67 59 53 48 45 42 41 41 41 43 55 76 94 102 103 101 101 101 97 93 91 89 92 91 70 46 51 68 73 75 82 87 92 99 102 101 101 100 100 101 99 94 89 83 78 76 78 82 83 79 75 74 73 71 70 70 70
88 81 73 64 54 46 40 36 33 31 30 29 29 30 31 31 31 38 56 77 89 94 99 104 102 99 95 94 98 100 87 74 77 88 94 96 97 97 100 103 102 101 101 100 100 101 101 98 91 82 76 74 76 83 87 85 81 79 80 81 80 80 79
52 46 40 36 32 30 28 27 28 26 25 26 28 27 26 28 28 27 30 38 46 55 66 80 92 99 101 99 98 99 99 97 93 90 94 100 102 102 102 101 101 101 100 100 100 100 100 98 92 87 85 86 89 94 95 93 90 85 82 81 80 78 76
32 31 29 28 28 29 30 29 28 27 28 32 36 34 30 28 28 28 28 28 28 29 32 38 51 65 79 92 101 102 101 101 98 94 92 91 91 95 98 99 100 102 102 102 102 101 102 102 99 97 97 98 101 102 99 96 94 90 84 81 82 84 83
27 26 29 37 40 42 45 43 39 39 46 52 51 45 41 39 35 33 33 34 35 37 39 39 41 43 48 59 75 87 96 100 102 101 99 95 91 87 85 88 95 99 99 95 94 94 97 100 101 102 102 100 100 100 99 99 99 97 93 90 91 94 91
40 45 54 68 77 79 81 79 73 69 73 75 72 67 68 70 67 65 66 66 67 73 77 78 76 75 72 69 69 73 80 86 89 91 94 96 94 88 85 87 91 93 88 82 82 85 86 88 90 90 89 91 93 95 99 102 103 101 99 98 99 100 97
75 86 91 96 99 99 99 99 97 94 93 93 91 91 95 95 92 92 93 91 92 97 101 101 100 99 99 97 95 92 89 88 88 88 88 88 87 87 88 89 89 89 86 84 83 82 80 78 77 75 75 81 87 91 98 102 103 103 102 101 101 101 99
70 86 96 100 101 101 100 100 100 100 101 102 99 97 99 101 101 101 100 98 98 100 100 100 101 101 100 99 98 96 94 92 94 94 94 93 92 89 88 88 88 85 84 84 84 81 77 76 76 76 77 80 85 90 96 101 103 104 104 103 102 102 101
57 67 79 86 88 93 97 98 96 94 95 98 97 95 94 95 95 96 96 98 101 103 102 101 101 100 100 100 96 91 88 88 89 90 91 95 97 96 93 90 87 83 82 83 83 81 79 79 80 82 84 87 91 96 100 102 103 103 103 102 102 102 103
71 74 78 79 80 86 92 93 91 89 88 88 89 87 85 84 82 82 83 86 89 91 92 97 101 102 101 101 100 97 94 94 94 93 93 95 96 96 92 87 83 83 85 85 83 82 83 83 83 86 91 95 100 103 102 102 102 101 101 102 102 102 102
62 66 70 71 73 77 81 83 83 82 81 80 81 84 88 90 91 90 90 90 91 90 89 92 99 103 102 101 101 101 100 100 100 99 99 99 97 95 93 89 88 89 89 87 86 87 88 89 89 91 96 101 103 103 101 101 101 101 101 102 101 100 100
56 59 63 68 74 79 82 84 84 84 83 85 88 92 96 99 100 99 97 95 94 95 97 99 101 103 102 101 101 101 101 101 101 100 100 100 100 99 98 97 97 97 95 94 95 95 96 97 98 98 99 101 102 101 101 101 101 100 99 99 101 102 101
71 71 72 76 83 88 89 90 90 90 92 97 100 101 101 101 101 102 101 98 95 96 100 103 103 102 101 101 100 101 101 101 101 101 101 100 100 100 101 100 101 101 100 99 100 100 100 101 102 102 101 101 100 100 101 101 100 98 97 98 101 102 101

ECMWFFLT1_850_rhum_126.txt.gz
RH
48 50 51 52 52 53 53 53 54 54 54 54 53 53 53 53 53 53 52 52 52 52 51 52 52 52 52 53 54 55 56 57 59 59 60 59 56 55 52 52 55 57 58 52 42 35 27 20 18 17 16 16 17 17 18 20 21 22 22 22 21 21 21
49 50 52 53 54 55 55 55 56 55 56 55 54 54 54 53 53 53 53 53 53 52 52 52 52 52 53 54 54 56 57 59 60 61 63 63 62 62 62 64 69 67 61 55 46 38 28 21 17 16 17 16 17 18 19 20 22 22 23 23 23 22 22
48 51 53 54 55 56 57 57 57 57 57 56 55 55 54 53 53 52 53 53 52 52 53 53 53 53 54 54 55 57 58 60 62 64 66 67 68 69 70 75 79 74 65 57 50 41 31 23 19 17 17 17 17 19 19 19 20 21 23 24 24 24 24
49 52 54 55 56 57 58 58 58 58 58 57 56 56 55 54 53 52 52 53 52 53 53 54 54 55 55 56 57 58 59 62 64 66 69 70 71 73 76 83 86 78 68 60 52 43 34 26 22 19 19 19 19 19 18 18 19 21 24 25 25 26 26
53 55 56 57 57 57 58 58 59 59 59 59 58 57 55 54 53 53 53 52 53 54 54 55 56 56 57 58 58 59 61 63 65 67 69 71 73 77 82 89 88 79 70 62 53 46 38 30 25 22 21 21 20 20 19 18 20 23 25 26 27 28 28
57 60 60 59 58 58 59 59 60 60 60 59 59 58 57 55 54 54 54 53 54 54 56 57 57 58 59 59 60 61 62 63 65 67 69 71 74 78 86 92 89 80 72 64 55 48 42 35 29 25 24 23 22 21 21 21 23 26 28 30 30 29 30
62 64 63 62 61 61 60 60 61 61 62 62 62 61 60 59 57 56 56 56 56 57 58 58 59 60 60 60 61 61 62 63 65 66 69 72 76 81 90 94 89 82 73 65 57 50 44 38 33 30 28 27 25 25 25 25 26 27 29 31 33 32 34
68 68 66 65 64 63 63 64 65 66 67 68 68 67 65 63 62 61 60 59 60 60 61 61 61 62 61 62 62 62 63 64 66 68 71 74 79 84 93 96 90 82 72 63 57 51 46 40 37 35 33 31 30 28 25 24 26 28 30 33 37 38 40
72 71 70 69 68 68 69 70 71 72 73 74 73 72 71 70 67 66 65 65 65 65 65 65 65 64 64 64 64 64 66 67 68 71 74 78 83 89 96 97 89 79 71 64 58 53 48 45 42 40 38 34 30 25 23 24 28 31 35 39 43 44 46
76 75 73 73 73 73 74 75 76 78 78 78 79 78 77 76 75 74 72 71 71 70 70 69 68 68 68 68 68 68 69 71 73 75 78 83 88 94 99 95 85 76 69 64 60 54 49 48 44 40 38 33 27 26 26 27 29 33 40 48 52 51 51
78 79 79 79 78 78 80 80 81 82 82 83 83 83 83 82 80 80 78 77 77 75 74 74 73 73 73 72 73 74 75 76 78 80 84 89 95 100 99 90 80 74 69 64 59 53 50 49 44 40 39 35 32 32 30 28 32 39 47 54 57 57 57
81 84 85 86 86 86 87 88 89 89 89 89 89 88 88 87 86 86 84 82 82 80 80 79 78 79 79 78 79 80 81 83 84 87 90 94 100 102 96 86 79 73 68 65 61 56 53 50 44 40 39 38 36 32 29 31 37 43 49 55 59 64 65
88 89 90 92 92 93 95 96 97 97 96 96 96 95 94 92 91 91 90 89 87 86 86 85 85 86 85 85 86 87 88 90 91 94 96 99 102 101 94 87 82 77 72 68 63 60 56 50 46 42 37 35 34 34 37 40 40 43 50 58 64 67 66
90 90 91 92 93 94 95 97 99 100 100 100 99 99 99 97 96 96 96 96 94 93 93 92 92 92 91 91 92 93 94 96 98 99 100 100 101 98 92 87 84 83 81 75 69 65 60 54 48 40 33 35 39 40 41 43 44 47 54 61 67 69 72
87 87 88 88 89 89 90 94 97 99 100 101 100 100 100 99 99 99 99 100 99 99 98 98 98 98 98 98 98 98 99 99 100 101 101 101 99 94 90 86 82 80 79 76 71 65 59 53 46 40 37 39 42 41 43 48 52 57 66 73 77 76 77
86 85 85 85 86 86 86 89 93 97 99 101 101 100 100 100 100 100 100 100 100 100 100 100 100 100 101 101 100 100 101 101 101 100 100 101 98 93 90 86 80 76 74 72 69 66 60 52 44 40 36 35 37 40 46 55 64 70 78 83 82 76 71
87 87 86 86 86 86 87 88 91 94 98 100 101 100 100 100 100 100 100 100 100 100 100 100 101 101 99 99 100 101 100 100 101 100 101 103 100 96 93 88 83 79 75 71 69 66 63 59 55 53 51 55 66 69 68 73 80 81 81 83 84 81 76
88 88 87 87 87 88 88 89 92 95 97 100 101 100 100 100 100 99 100 100 100 100 100 100 101 101 97 93 94 99 100 100 100 100 100 101 99 97 94 89 84 80 75 73 70 64 62 70 83 91 92 93 97 96 95 96 96 93 92 93 95 93 90
91 90 88 88 88 90 91 93 95 96 98 100 100 100 99 100 100 100 100 100 100 100 100 100 100 101 99 94 92 95 98 100 102 101 99 96 95 95 93 89 86 81 76 74 70 62 55 58 70 83 94 101 102 99 100 101 99 99 100 100 101 100 100
91 90 89 88 89 91 93 95 96 97 98 100 100 101 101 100 100 100 100 100 100 100 100 100 100 100 100 99 98 99 100 100 97 95 96 98 100 97 87 79 76 74 70 66 61 56 53 50 50 56 68 85 98 101 101 101 100 101 100 100 100 99 100
92 91 91 90 90 91 91 91 91 90 91 92 92 93 96 98 99 100 100 100 100 100 100 100 100 100 100 100 100 100 100 98 93 89 92 98 101 97 86 79 79 77 75 74 71 69 70 70 68 66 66 72 81 88 92 95 97 99 100 101 102 100 101
93 92 91 89 89 90 90 90 90 89 87 87 87 86 87 89 90 93 98 101 100 101 102 100 99 100 100 100 100 94 90 92 94 93 95 96 97 99 97 94 95 94 93 93 93 92 91 89 87 85 81 78 77 78 80 81 83 86 89 91 93 94 95
98 97 95 92 91 91 90 88 85 81 77 75 73 73 74 76 78 82 92 100 100 100 101 100 98 97 95 95 92 81 73 81 91 94 94 93 93 96 99 100 101 100 100 100 100 100 100 96 92 90 86 83 79 77 77 78 79 81 83 83 82 81 79
88 86 82 77 72 69 65 59 54 50 47 46 46 46 47 51 54 59 72 88 98 101 101 101 100 98 96 97 94 79 70 80 92 93 91 93 91 89 91 95 99 101 101 100 100 101 100 95 89 84 80 76 73 73 76 80 81 84 89 90 89 87 81
50 49 47 43 39 36 33 31 30 29 28 28 28 28 29 31 33 35 43 57 69 78 84 92 98 101 101 99 94 86 82 91 98 96 92 90 87 83 86 92 97 100 100 100 100 100 100 98 93 88 82 77 77 80 83 84 84 86 92 95 95 95 92
30 30 29 29 31 31 31 30 31 31 31 32 33 30 28 27 27 27 28 30 34 38 43 51 62 77 91 99 100 97 95 97 98 99 99 95 88 86 90 96 100 101 100 100 100 100 100 100 99 97 95 94 95 96 94 91 90 91 95 97 94 93 91
32 33 38 48 57 62 64 62 61 60 60 58 54 48 44 43 42 41 42 43 43 41 38 36 36 40 51 66 81 92 99 103 102 100 99 95 90 87 88 90 95 100 101 101 101 100 100 100 100 100 100 100 102 101 95 92 93 92 93 95 94 94 91
44 53 69 84 90 92 95 92 87 85 80 74 70 68 71 77 78 78 80 83 83 82 78 76 72 64 54 49 49 57 71 85 95 101 102 99 96 94 90 87 89 93 95 97 100 101 101 101 100 100 100 100 101 100 95 92 94 95 95 95 96 98 95
69 82 94 100 100 99 101 100 95 92 89 89 91 92 94 98 99 99 99 99 100 101 100 99 99 97 92 85 78 72 69 69 75 83 90 96 99 100 99 98 97 94 90 88 89 90 92 95 98 100 101 102 103 101 97 96 97 99 101 101 100 101 100
91 100 100 100 99 98 98 99 99 96 93 96 100 99 100 101 99 99 101 100 100 101 100 100 100 98 97 98 99 98 96 90 86 83 81 83 87 89 91 93 96 95 90 85 83 81 82 87 93 96 98 100 102 101 100 98 96 97 101 102 101 101 101
93 99 99 100 99 96 94 95 94 91 92 98 101 101 101 98 95 97 101 100 100 101 100 100 101 100 98 98 98 98 99 100 101 101 97 93 90 89 88 88 86 85 84 84 85 86 86 88 91 93 94 95 97 98 96 93 90 91 96 100 102 102 100
78 82 85 86 87 91 97 99 93 88 89 94 95 95 96 96 95 97 96 91 92 99 102 101 100 100 100 100 101 100 99 99 99 101 102 102 101 100 100 99 96 93 92 92 93 94 94 93 91 91 91 90 91 93 92 90 88 86 89 95 100 102 100
68 71 72 72 74 81 89 92 90 87 86 85 85 89 95 98 97 96 94 92 94 99 101 101 101 101 101 100 100 100 100 100 99 98 98 98 99 98 97 97 98 99 101 102 102 102 101 100 97 95 94 91 90 89 88 87 87 87 91 97 101 102 101
71 77 81 82 84 86 87 89 90 89 88 89 92 96 99 99 98 96 95 97 100 101 101 100 100 101 102 102 102 101 100 100 100 100 100 99 97 96 95 92 93 96 98 101 103 104 104 105 103 102 99 95 92 91 91 92 94 95 99 103 103 102 100
79 82 86 89 92 93 93 93 92 90 92 97 101 101 98 97 96 95 94 95 97 99 100 101 101 101 102 103 102 101 100 101 101 100 100 100 100 100 99 97 96 96 95 96 98 100 101 102 102 100 97 94 93 92 94 96 99 101 103 103 102 101 101
91 89 88 90 92 92 92 90 88 89 95 100 99 96 92 89 89 90 90 90 92 93 95 97 98 100 102 102 102 101 101 101 101 100 100 100 100 100 101 100 100 100 98 97 98 97 97 99 99 97 95 95 95 96 97 99 101 103 104 104 103 103 101

ECMWFFLT1_850_rhum_129.txt.gz
RH
47 47 47 48 48 48 49 51 52 53 55 55 55 56 56 56 56 56 56 56 56 56 56 56 55 54 53 53 52 51 50 50 49 48 47 46 46 45 45 46 45 45 48 50 52 55 58 60 60 58 59 61 57 45 36 32 26 19 16 16 15 15 15
52 52 51 50 50 50 51 53 54 56 57 58 58 58 57 58 58 57 57 57 57 57 56 57 56 55 55 54 53 53 52 51 50 50 50 49 49 49 49 49 48 48 50 53 56 59 62 65 62 61 63 67 65 53 40 31 25 20 17 15 15 15 15
56 56 57 56 54 54 55 56 57 59 60 60 60 60 60 60 59 59 59 58 58 58 58 58 57 56 56 55 55 54 53 53 53 53 53 53 53 53 54 54 53 53 55 58 61 64 67 69 67 65 68 71 68 56 42 32 24 19 16 15 15 16 16
55 57 59 59 57 56 56 58 60 62 63 63 63 63 62 62 61 60 60 59 59 59 59 59 58 57 57 57 56 55 55 55 55 55 56 56 57 57 57 58 57 58 61 64 67 70 72 73 71 71 74 75 70 58 45 33 23 18 17 16 16 16 16
52 55 58 57 56 55 56 60 64 67 68 67 67 66 65 64 63 63 62 61 61 60 60 60 60 59 59 59 58 58 57 57 57 58 58 58 59 59 59 61 62 64 67 69 72 74 75 75 74 76 80 79 71 59 48 35 25 20 18 17 16 16 17
55 57 58 57 56 57 61 66 71 73 72 71 71 70 69 68 66 65 64 63 62 62 62 62 61 61 62 62 62 62 62 62 61 60 60 60 61 62 63 65 67 70 73 75 78 79 78 77 78 81 85 84 74 61 49 37 28 24 20 18 17 16 16
57 58 59 60 61 64 67 71 74 75 75 75 75 74 72 71 70 69 67 66 66 65 64 64 64 65 66 66 67 67 67 66 65 64 63 64 65 66 69 71 73 76 78 81 83 83 82 81 82 86 90 87 75 62 52 42 34 28 23 20 18 17 17
56 58 61 64 68 70 71 72 73 75 77 78 78 77 76 75 74 73 71 71 70 69 69 69 69 69 70 71 71 70 70 69 67 67 68 68 70 72 74 76 78 80 83 85 86 87 86 85 87 91 94 88 77 65 55 47 38 31 26 23 21 20 19
68 66 66 68 72 74 76 76 77 79 82 83 84 84 83 82 81 80 79 78 77 76 75 74 74 74 74 74 74 73 72 72 71 72 72 73 74 76 77 79 82 84 86 88 90 90 90 92 94 96 95 89 78 66 56 48 41 34 31 28 25 22 21
82 80 78 76 76 78 80 81 82 84 86 89 90 90 90 90 89 88 87 86 85 83 82 80 79 79 78 77 76 75 75 75 75 75 75 76 77 78 80 82 83 85 86 88 90 90 91 93 95 97 97 89 77 64 55 49 43 39 36 34 31 26 22
88 88 88 87 86 86 87 87 88 89 89 92 93 95 95 95 95 95 94 92 91 90 88 86 85 83 82 80 79 78 77 77 77 77 78 79 79 80 80 81 83 85 86 88 88 88 91 93 94 98 97 87 74 64 57 51 46 44 42 40 36 28 23
88 89 89 91 91 92 93 94 95 95 95 96 97 98 99 98 98 98 98 98 97 96 94 93 91 89 87 86 84 83 82 81 81 81 80 81 81 81 81 81 82 83 85 88 88 89 91 92 96 100 95 82 70 62 57 53 50 49 47 42 38 32 25
89 89 91 91 91 93 94 95 98 99 99 100 100 100 100 100 99 98 98 99 99 99 99 98 96 95 92 91 89 88 87 87 86 85 84 84 84 84 84 83 84 86 87 88 90 93 95 95 98 99 88 74 66 61 58 56 53 51 48 43 37 29 24
88 89 90 90 89 90 90 91 93 94 96 98 99 101 100 100 100 99 98 98 98 99 100 99 99 99 97 96 95 93 92 91 90 89 88 88 88 87 87 87 88 91 93 95 96 98 99 100 99 93 81 70 66 62 60 58 55 52 47 41 36 31 32
91 91 91 91 90 89 88 89 90 90 92 94 97 100 101 100 100 100 99 99 99 99 99 98 99 99 99 99 98 97 97 95 94 94 93 92 92 91 91 92 92 94 97 99 99 97 98 100 96 87 77 72 68 65 62 59 57 55 52 50 49 47 47
94 93 92 91 91 90 89 89 89 89 90 92 95 100 101 100 100 100 100 100 100 100 100 99 100 99 99 99 97 97 99 99 99 99 99 98 98 97 97 97 96 97 99 100 99 96 96 97 94 88 81 75 72 69 66 66 65 64 64 63 58 51 46
94 94 94 93 92 91 90 90 90 90 90 93 97 101 101 100 100 100 100 100 100 100 100 100 100 100 100 99 98 98 99 100 101 100 100 100 100 100 101 101 99 100 100 100 100 100 99 97 95 92 86 79 74 69 67 68 69 67 67 63 55 46 43
96 95 95 95 93 92 90 90 90 91 92 95 99 101 100 100 100 100 100 100 100 100 100 100 99 100 100 100 100 100 100 100 100 99 99 100 101 100 99 99 100 101 100 100 100 100 100 100 98 95 90 84 80 77 78 81 81 78 76 71 62 57 58
97 96 96 95 94 93 92 92 93 94 95 98 100 101 101 100 100 100 100 100 100 100 100 100 100 100 100 100 100 100 100 100 100 99 97 96 100 102 101 100 100 98 98 100 100 100 99 98 97 97 97 97 96 95 97 97 96 96 96 92 87 86 88
97 95 94 93 92 92 92 92 92 92 93 95 96 97 98 98 99 100 100 99 98 97 97 97 98 100 100 100 100 100 100 99 100 100 99 97 98 96 93 94 96 94 95 97 97 94 92 91 91 93 94 97 99 100 100 100 100 100 100 100 99 99 100
97 96 94 93 93 93 93 92 91 90 90 90 90 90 91 92 94 95 97 98 97 96 96 96 95 95 97 98 99 100 100 101 100 98 98 100 98 91 88 92 95 94 96 96 92 88 87 87 88 90 91 91 92 94 96 98 99 99 98 100 101 100 100
77 78 77 78 80 81 82 82 80 78 78 78 78 79 80 82 84 86 91 97 100 99 99 98 96 93 92 93 95 95 96 98 99 98 99 101 100 95 95 98 99 99 99 98 95 93 92 89 85 85 85 85 83 82 83 82 82 82 83 88 94 98 101
41 41 41 42 44 45 46 47 46 45 46 46 46 47 49 51 55 59 67 79 91 96 98 100 101 98 94 91 89 92 94 95 97 96 97 100 101 100 100 100 99 99 101 100 100 100 98 95 90 86 83 81 79 77 74 69 64 63 63 65 70 82 94
26 26 27 26 26 26 26 27 28 28 29 29 28 27 28 29 30 31 35 41 51 60 69 78 84 91 99 101 98 97 97 96 96 97 97 98 98 98 100 101 100 100 100 99 100 100 100 97 92 88 85 80 78 78 78 75 71 68 67 64 65 74 86
34 35 36 36 37 35 32 32 34 35 35 36 36 35 36 37 37 38 39 39 39 40 43 48 51 60 76 87 93 99 103 100 97 96 97 99 99 100 101 100 100 100 100 100 100 99 100 98 93 89 85 79 77 79 81 84 85 83 82 81 82 87 92
44 45 48 54 56 53 46 43 42 42 43 46 48 49 51 52 54 59 66 71 73 70 66 65 62 60 57 53 55 69 85 96 99 97 93 94 96 99 100 101 101 100 99 100 100 99 100 100 98 96 92 89 90 89 84 83 86 88 89 90 91 94 96
52 61 72 81 79 71 63 57 51 48 47 48 53 60 66 70 73 77 83 88 90 88 85 84 84 82 78 70 62 58 58 66 77 83 85 88 91 92 93 95 99 102 101 100 100 100 100 100 99 99 99 98 99 97 91 89 93 96 95 95 97 100 100
75 86 95 99 95 87 78 69 64 60 58 62 73 82 88 92 94 95 96 96 94 90 87 85 85 86 89 92 93 88 78 69 65 63 62 67 79 89 94 93 94 98 101 101 101 101 101 101 100 100 100 100 99 99 97 97 100 101 97 96 100 102 100
97 99 100 99 97 94 90 86 84 77 70 77 92 99 99 100 100 99 99 100 99 95 92 90 88 86 86 86 89 93 95 93 89 81 71 65 68 77 87 93 96 98 100 101 101 102 102 101 101 100 100 101 101 100 100 100 100 98 95 96 99 99 95
99 99 97 94 89 88 93 98 96 85 76 82 95 100 100 100 100 100 101 100 98 98 99 100 97 94 93 92 90 89 90 92 95 96 94 90 86 84 86 90 93 96 99 100 101 102 102 101 100 99 100 102 102 101 101 101 100 99 98 98 99 97 92
82 82 82 82 82 85 91 94 90 83 82 88 94 97 100 101 100 100 100 97 94 96 99 102 103 101 99 99 98 96 94 93 93 93 94 96 97 97 98 98 96 95 96 99 101 103 103 102 101 100 100 101 101 101 102 102 101 100 100 100 100 99 94
81 80 81 84 89 95 99 98 93 90 91 95 98 100 100 99 98 98 96 93 94 98 101 102 102 102 101 100 100 99 99 98 98 98 98 98 97 97 98 101 102 100 100 102 103 102 100 100 101 101 100 100 100 100 100 100 100 100 100 100 100 99 98
86 84 84 84 86 90 93 95 95 94 92 95 100 102 98 94 93 94 94 95 96 99 101 103 103 102 101 100 100 100 101 101 100 100 100 101 101 99 97 97 99 101 103 103 103 102 101 100 100 100 100 100 100 100 100 100 100 100 100 100 100 99 100
74 77 80 82 84 87 89 92 93 91 90 95 102 100 92 86 84 84 85 87 91 93 95 99 101 103 103 102 101 101 101 101 102 101 101 101 101 101 100 98 97 98 99 101 102 102 103 103 102 101 101 100 100 100 100 100 100 100 100 100 100 100 101
74 79 85 89 92 92 90 89 86 82 84 95 100 91 79 72 70 69 69 71 77 83 89 93 96 98 101 102 102 102 101 101 101 100 101 101 100 100 100 100 99 98 98 98 100 101 102 103 103 103 102 101 100 100 100 100 100 100 100 101 102 102 100
88 89 91 92 91 86 79 73 70 70 76 86 87 80 73 70 70 70 71 73 75 80 85 90 93 95 95 95 96 98 99 100 101 100 100 100 100 100 101 100 99 100 99 98 98 98 98 100 102 103 103 102 101 100 100 100 100 100 102 104 104 102 101

ECMWFFLT1_850_rhum_135.txt.gz
RH
55 53 53 52 51 52 52 53 56 63 70 73 72 73 74 73 74 72 69 68 68 66 66 65 63 61 60 61 63 61 61 62 62 63 63 62 63 62 60 59 55 53 53 53 51 50 49 48 47 46 44 44 43 43 43 44 45 46 48 49 51 52 53
69 65 63 60 58 57 56 57 59 63 68 71 73 78 79 79 78 76 74 73 72 70 69 69 67 64 63 64 65 64 63 63 63 64 64 63 63 63 62 61 59 57 56 56 55 52 51 50 48 47 46 45 44 44 44 44 45 46 48 50 52 54 55
80 79 78 75 72 69 66 65 65 66 70 71 74 78 81 83 84 82 80 78 77 76 74 73 71 69 68 68 68 67 67 67 67 67 66 66 65 65 64 64 63 61 60 60 59 57 56 54 52 50 48 47 45 44 45 45 45 46 47 49 51 53 55
82 83 83 83 83 82 79 77 74 72 73 74 76 78 79 83 86 87 86 85 84 83 81 79 78 76 75 74 73 72 72 71 71 70 70 70 70 69 69 69 68 67 66 65 64 63 62 59 57 55 52 49 48 46 45 45 45 46 47 48 51 52 53
76 78 79 81 83 85 85 86 85 81 79 77 77 79 80 81 84 85 85 86 87 88 88 87 84 82 81 80 78 78 77 77 75 75 74 74 73 73 73 73 73 72 71 70 69 68 67 65 63 61 58 54 51 49 47 47 46 47 47 48 49 50 50
74 74 75 76 78 81 84 87 89 89 88 85 83 82 81 81 82 83 83 83 85 87 90 92 89 88 87 85 83 83 83 82 81 80 79 78 78 77 77 77 76 76 75 74 74 73 72 71 69 67 65 61 58 55 52 50 48 48 48 48 48 48 48
73 74 74 75 75 77 79 82 86 89 91 92 92 91 90 89 87 87 86 85 84 85 89 92 93 92 92 90 89 88 87 87 86 85 85 83 82 82 82 82 81 81 81 80 79 78 77 76 75 73 71 68 65 63 60 58 55 53 51 50 50 50 50
73 74 75 76 77 77 78 80 83 86 89 92 94 95 96 96 95 95 94 92 90 89 89 91 92 94 94 95 94 92 91 91 89 89 89 87 87 87 87 87 86 86 87 85 85 83 82 81 79 77 76 75 74 72 70 67 64 62 60 58 57 57 58
76 77 77 77 78 79 80 81 82 85 89 92 94 95 97 98 99 99 99 98 97 96 96 95 95 95 96 97 98 97 96 95 94 94 93 92 91 91 91 90 90 91 90 89 90 88 86 86 84 81 79 79 79 77 76 76 74 71 70 69 68 68 69
77 78 78 78 79 80 80 82 84 86 89 93 96 98 99 98 98 98 99 99 100 99 99 99 99 99 99 99 100 100 99 98 98 98 98 97 96 96 95 94 93 94 93 92 93 90 89 91 89 84 83 82 81 80 81 83 82 79 77 77 76 77 78
81 82 82 82 83 84 85 86 88 90 93 95 97 98 99 98 98 99 99 100 100 100 99 99 99 100 100 100 100 100 100 100 100 100 100 100 99 99 99 98 98 97 95 96 96 93 92 95 91 87 88 88 85 85 87 89 88 86 84 83 82 82 82
87 87 88 88 89 90 91 92 93 94 96 98 99 99 99 99 99 99 99 100 100 99 98 99 99 98 98 99 100 100 100 100 100 100 100 100 100 100 100 100 100 99 98 98 98 96 95 95 92 91 94 94 89 89 91 94 94 92 90 88 87 86 85
89 90 91 92 92 93 94 95 96 96 97 100 101 100 99 100 100 99 99 100 100 100 100 100 99 97 95 95 97 99 100 100 100 100 100 100 100 100 100 100 100 100 100 100 99 99 98 96 93 93 94 92 90 91 94 95 96 95 94 93 91 88 87
78 84 90 92 93 93 94 95 95 95 96 98 99 100 100 100 99 96 95 96 98 99 100 100 100 100 98 97 98 99 100 100 100 100 100 100 100 100 100 100 100 100 100 100 100 101 99 97 97 97 94 92 93 94 94 94 95 95 95 94 91 89 91
55 62 70 78 84 87 90 93 94 94 93 93 96 100 101 97 93 92 93 94 95 98 100 101 101 100 99 99 99 100 101 101 100 100 99 99 100 100 100 100 100 100 100 100 100 101 100 99 100 99 98 98 98 96 95 95 95 95 95 95 95 95 96
37 40 43 49 56 61 67 74 80 86 91 92 94 99 98 92 88 88 88 90 92 95 97 100 101 101 101 100 99 99 100 100 100 100 100 100 100 100 100 100 99 100 100 100 100 100 100 99 100 101 100 100 101 100 99 100 99 99 100 100 100 101 100
28 28 28 30 31 34 37 41 46 56 68 77 88 99 100 94 89 88 88 88 89 91 93 95 96 98 97 95 95 98 100 101 101 99 99 100 99 100 100 99 98 100 100 100 100 100 100 100 100 101 100 100 101 100 100 101 100 100 101 100 100 101 100
27 27 27 27 26 26 26 26 27 29 34 43 57 72 81 80 73 70 69 68 71 75 79 84 87 90 93 95 93 95 97 99 100 100 100 100 99 99 98 94 95 99 99 99 100 101 100 100 100 100 100 100 100 100 100 101 100 99 100 100 100 99 99
33 32 33 34 33 33 32 31 31 29 29 31 33 40 58 65 53 43 44 53 62 61 54 56 63 67 73 82 87 92 96 97 98 99 100 100 100 99 96 91 92 96 95 95 99 99 99 100 99 99 100 100 100 100 100 98 99 100 101 100 99 99 101
37 36 37 37 38 40 41 40 38 37 37 39 36 40 60 73 64 56 65 80 88 77 55 43 40 38 40 48 57 68 80 91 100 102 100 99 101 100 97 95 96 97 95 95 96 96 97 100 100 100 100 100 100 100 99 98 99 101 101 100 100 100 101
41 39 40 42 44 46 48 48 47 44 42 45 44 46 62 81 84 83 92 101 99 87 68 53 44 39 35 33 33 40 51 68 89 101 101 99 100 100 100 99 98 97 98 98 98 97 98 100 101 101 101 100 100 100 100 99 99 99 98 98 98 99 101
52 46 44 48 51 52 52 52 50 49 46 45 47 46 55 77 93 97 100 100 90 76 67 62 58 52 47 48 57 69 75 80 91 100 101 100 100 99 99 100 101 100 99 99 98 99 100 100 100 101 101 100 100 100 100 100 100 98 94 90 89 92 94
56 49 44 46 47 48 50 51 51 54 52 50 54 54 54 70 93 103 98 90 78 70 68 68 67 64 65 76 88 92 89 88 90 92 93 96 101 102 100 99 99 100 101 100 100 100 100 99 99 100 101 100 99 99 100 100 100 98 93 87 85 86 89
55 51 47 45 44 45 51 56 57 57 58 59 64 63 59 72 94 98 85 77 76 77 78 79 80 78 79 84 85 77 71 72 76 79 78 76 80 91 100 102 101 100 99 99 99 100 100 100 100 100 100 99 98 99 100 100 100 99 95 91 87 86 89
62 63 58 55 53 52 58 65 61 56 58 62 66 66 71 86 98 92 80 80 85 85 84 87 89 86 81 78 76 73 71 69 70 74 76 73 69 71 80 88 95 99 101 101 101 100 99 100 100 100 100 100 99 99 100 100 100 100 99 97 95 94 96
76 81 75 69 67 67 69 69 60 52 55 60 67 78 91 99 100 95 93 94 89 83 80 80 80 81 80 80 80 80 78 77 74 73 76 80 81 77 74 74 77 81 86 92 97 100 101 100 100 100 99 99 100 101 100 100 100 100 100 100 100 100 100
90 97 92 82 78 78 80 77 66 59 62 69 80 94 103 102 99 98 95 90 83 80 80 80 80 81 81 80 82 83 85 87 87 83 80 80 83 85 86 85 84 84 84 84 86 92 97 99 100 101 100 99 100 100 100 100 100 99 100 100 99 100 100
97 101 98 92 88 86 86 85 78 73 79 89 97 102 102 100 99 100 96 89 84 82 79 75 71 69 67 65 66 70 75 79 84 88 89 88 87 87 89 90 93 95 97 96 94 95 96 94 93 95 98 99 98 98 99 101 101 100 100 100 100 100 100
100 101 98 92 89 88 89 91 87 82 88 99 101 101 101 100 100 100 95 86 79 72 66 61 57 54 54 55 56 59 65 73 79 84 88 91 93 94 94 93 94 95 96 99 102 103 101 98 93 92 96 99 98 94 93 95 98 100 100 100 100 100 100
98 100 97 90 87 90 95 96 86 77 83 98 102 98 96 97 98 93 80 67 61 58 55 55 56 57 59 60 62 65 69 73 79 83 87 90 92 93 94 94 96 98 98 99 102 103 103 102 99 97 98 100 99 96 93 91 92 94 99 102 102 100 100
86 91 93 91 91 92 88 81 69 62 73 96 106 95 81 77 80 75 60 52 53 53 53 55 56 58 62 65 67 71 74 76 79 82 84 86 88 90 93 93 93 95 97 98 101 103 102 102 102 101 100 100 100 100 99 98 96 95 99 103 101 100 101
82 85 85 83 81 79 71 63 60 61 73 92 98 84 65 58 59 57 51 52 54 53 53 57 58 60 64 66 67 71 73 74 76 77 78 80 82 83 87 90 91 92 93 94 97 100 102 103 103 102 101 101 101 100 100 100 100 99 100 101 101 101 101
79 74 67 61 61 63 62 62 64 65 68 72 69 59 52 49 51 54 54 55 55 54 56 58 60 63 66 67 70 73 72 71 72 72 72 74 77 79 83 87 89 90 89 91 93 95 99 102 103 102 101 100 100 101 100 100 100 100 100 101 101 99 98
67 58 53 53 57 60 60 61 60 57 55 52 47 45 47 49 51 55 55 53 53 57 60 61 63 67 70 71 73 75 74 72 71 69 69 70 72 75 80 86 90 91 90 90 90 89 91 96 99 100 101 100 100 101 100 100 100 100 100 100 99 97 98
54 52 53 56 59 59 56 53 49 46 47 48 46 44 45 45 45 46 46 48 52 57 61 63 65 68 70 72 75 77 78 78 77 74 73 72 72 74 78 85 92 95 95 95 94 91 90 91 94 97 99 100 101 101 100 100 101 100 99 100 99 100 102
53 57 60 58 55 52 49 45 43 43 46 48 48 46 44 43 43 44 45 49 52 55 58 62 64 65 66 68 70 72 74 77 81 83 82 78 77 77 79 81 85 89 92 95 98 98 96 93 93 96 99 100 101 101 100 100 100 100 100 100 100 100 101

ECMWFFLT1_850_rhum_141.txt.gz
RH
83 83 84 84 84 85 83 81 78 74 72 72 73 77 81 83 85 85 84 85 85 84 84 84 83 83 83 82 80 79 78 77 76 74 72 70 68 68 67 64 62 61 62 62 62 61 59 57 53 47 45 44 45 47 46 47 49 49 50 51 51 53 52
80 81 82 83 84 85 86 88 88 88 86 84 83 82 83 85 86 88 89 90 90 89 88 87 87 86 86 86 85 84 83 82 81 79 76 75 73 72 71 68 65 64 64 64 64 63 61 60 58 55 51 47 44 47 50 49 50 51 52 53 52 53 52
71 74 77 79 80 81 82 83 85 87 89 90 92 92 91 92 91 91 92 93 93 95 95 94 93 92 93 93 92 91 90 90 89 88 84 81 79 78 76 74 71 68 67 67 67 67 66 63 61 59 57 51 44 45 49 52 54 54 55 57 57 56 56
63 65 69 72 75 77 78 79 80 81 83 85 88 91 92 94 96 96 97 97 96 97 98 97 96 97 98 99 98 97 97 98 97 97 94 91 89 87 84 82 79 75 73 72 71 71 72 70 67 65 63 57 48 45 48 52 55 57 58 60 62 61 60
63 64 66 67 70 73 74 76 78 79 81 82 83 85 87 89 92 94 97 98 99 100 100 98 97 97 98 100 100 99 99 100 100 100 99 99 97 96 95 93 90 87 84 81 79 80 81 80 78 75 71 66 56 49 50 51 52 55 58 60 64 66 64
67 67 69 69 69 71 72 73 75 77 79 81 82 83 84 85 87 89 92 97 99 100 100 100 99 98 99 100 100 99 100 100 100 100 100 100 100 100 100 100 98 97 96 94 92 91 92 91 88 85 82 77 69 62 57 52 50 53 56 59 64 68 69
71 71 72 73 73 73 73 74 75 77 80 81 81 82 84 87 89 92 94 98 100 100 100 100 100 100 100 100 100 100 100 100 100 100 100 99 100 100 100 100 100 100 100 100 99 97 95 95 94 93 91 87 83 80 71 59 52 53 56 59 64 69 72
74 74 74 76 77 77 77 77 78 80 80 81 83 87 92 96 98 99 99 100 100 100 100 100 100 100 100 100 100 100 100 100 100 100 100 100 100 100 100 100 100 100 100 100 100 97 94 95 98 99 98 96 94 92 85 74 62 55 57 60 64 69 72
73 74 75 77 79 80 81 82 82 83 83 85 90 95 99 100 100 100 100 100 100 100 100 100 100 100 100 100 100 99 99 100 100 99 100 100 100 100 100 100 100 100 100 100 101 99 96 97 99 99 99 100 97 95 91 86 78 67 63 64 65 68 73
66 67 68 70 74 77 81 83 85 86 89 92 97 100 100 100 100 100 100 100 100 100 99 100 100 100 100 99 99 100 100 100 100 100 100 100 100 100 99 100 100 100 100 100 100 100 99 100 99 97 98 98 95 95 93 90 88 80 69 66 67 68 73
54 53 53 55 58 63 70 76 82 87 90 94 100 101 99 99 99 99 100 100 100 100 100 100 101 100 99 98 98 97 97 98 99 99 100 100 100 100 100 100 100 100 100 100 100 100 99 100 100 98 99 99 96 96 95 92 93 88 75 69 69 70 72
42 40 39 40 40 43 49 57 71 83 88 92 98 100 100 102 101 99 100 100 99 100 99 99 99 97 95 94 92 91 90 89 90 91 94 96 97 98 99 100 100 100 100 99 100 100 99 100 100 99 99 101 99 97 97 96 95 93 84 75 72 74 75
34 33 32 31 30 31 31 35 46 60 74 88 100 103 99 98 99 99 100 101 99 99 98 96 96 94 91 89 87 85 83 82 82 83 85 87 90 92 93 94 97 99 100 101 100 100 100 99 100 100 99 99 99 99 100 99 98 97 94 85 78 78 80
32 32 30 29 28 26 25 26 27 32 43 62 86 102 101 101 104 101 96 89 79 73 75 80 81 78 77 77 76 77 77 78 80 80 81 84 88 91 91 90 91 92 94 97 99 100 101 100 100 101 99 98 100 100 100 100 99 100 99 94 88 85 86
34 34 33 32 32 29 29 30 27 28 29 31 53 81 84 80 86 84 69 51 39 40 49 52 48 46 47 49 50 54 58 61 68 74 79 83 88 91 93 94 94 93 91 92 94 97 99 100 100 100 100 100 100 100 100 100 100 100 100 98 96 95 95
38 37 35 35 34 32 33 33 32 35 33 28 46 72 62 43 52 61 42 27 37 52 51 40 34 33 34 35 37 36 35 39 52 65 74 80 83 85 88 95 99 100 98 96 96 96 96 96 97 98 99 100 100 100 100 100 100 100 100 100 100 100 99
39 38 37 35 35 35 34 36 36 36 36 35 50 72 60 38 47 57 38 35 64 78 62 52 57 53 42 39 37 33 37 54 70 81 87 90 91 91 91 96 100 100 100 101 100 99 99 98 98 99 99 99 100 100 100 100 101 100 99 100 100 100 99
41 41 40 39 40 40 38 40 41 41 44 42 46 63 65 52 53 58 48 55 83 91 79 82 91 79 60 53 46 37 54 86 99 98 99 100 98 96 93 94 98 98 97 98 98 98 98 98 98 100 100 98 99 100 100 99 99 99 99 100 100 100 99
49 50 51 47 45 45 43 43 44 45 49 49 49 62 70 61 62 71 72 79 94 98 95 99 99 86 71 62 51 43 62 95 103 97 99 102 98 96 94 96 98 94 87 86 88 89 92 92 91 92 93 91 91 95 100 101 100 100 100 100 100 101 99
58 56 56 52 48 48 47 47 50 52 54 53 51 55 61 66 77 89 92 95 99 100 100 100 94 83 68 57 50 49 66 94 104 100 102 100 92 93 99 101 98 86 77 79 84 86 87 87 85 86 87 86 83 84 88 93 97 101 101 100 100 100 100
58 56 56 55 53 52 51 53 56 54 52 50 44 44 61 84 97 98 96 98 101 100 99 97 87 74 62 55 53 55 65 81 89 92 94 86 80 89 97 93 85 77 75 79 82 83 85 87 88 92 94 95 93 89 88 89 91 94 98 101 101 100 99
56 56 58 61 65 65 59 55 53 48 44 43 40 48 77 102 102 94 93 97 100 96 88 79 68 57 50 47 45 46 50 53 53 58 61 57 59 68 69 63 62 65 67 68 69 70 71 71 73 81 89 94 97 98 98 97 94 90 91 95 100 101 100
66 70 70 74 81 84 74 56 46 47 49 48 49 62 89 105 98 88 86 87 85 77 64 54 47 42 38 37 35 36 37 36 36 37 38 39 42 44 42 43 48 52 57 61 63 63 63 65 73 83 90 96 99 99 99 100 100 96 93 94 98 100 100
82 90 91 93 91 86 75 59 53 58 62 60 59 69 93 105 91 71 64 63 61 54 46 41 37 33 31 30 29 28 27 27 28 28 29 32 32 31 34 37 39 44 52 60 66 71 76 83 92 98 100 101 101 100 98 97 98 100 99 98 99 100 100
88 93 96 100 94 80 69 66 68 68 66 65 61 65 86 97 75 50 46 49 48 42 35 31 28 26 25 24 23 23 23 22 23 24 26 28 28 31 36 40 43 50 56 62 74 86 91 92 91 91 93 95 98 101 99 96 95 96 98 99 100 100 100
88 91 98 101 91 74 67 75 81 71 64 72 75 73 84 84 60 43 44 44 38 32 28 25 26 25 24 24 24 25 26 25 26 28 29 30 32 35 39 44 52 60 67 77 90 97 96 93 90 88 87 86 88 92 94 97 98 97 97 98 98 99 99
86 93 100 92 77 68 72 85 87 68 63 85 97 93 93 80 53 40 41 33 27 27 25 24 26 25 25 26 27 28 29 29 29 31 31 32 34 37 40 45 51 58 69 83 90 90 91 95 97 98 95 91 88 87 89 96 101 100 99 100 100 100 99
89 95 91 75 66 71 79 87 81 62 64 91 103 99 97 80 47 32 32 27 25 28 26 25 27 26 27 28 28 28 29 29 30 31 32 33 34 37 40 42 44 49 55 61 65 72 83 92 95 97 98 98 98 96 95 98 102 101 100 100 100 101 101
93 91 77 66 71 79 79 78 69 57 69 97 103 95 96 84 49 27 27 29 28 27 27 28 28 28 29 30 29 30 31 31 32 33 33 34 35 37 40 40 40 44 46 46 54 67 78 82 84 88 93 97 100 100 98 98 99 99 100 100 100 100 101
95 85 71 70 83 86 73 63 58 58 79 105 100 79 75 70 46 27 28 30 29 28 29 30 30 32 33 33 34 36 37 37 38 38 38 39 39 41 45 47 46 46 45 49 60 69 71 74 81 88 91 92 93 94 94 93 92 95 99 102 101 100 100
88 84 79 79 83 76 60 50 50 55 70 84 73 49 41 43 35 28 30 30 29 31 32 32 34 36 37 38 40 42 43 45 46 46 46 47 46 46 51 56 54 50 52 65 75 73 68 75 88 93 89 84 83 84 84 85 86 89 95 101 103 101 100
83 87 86 76 66 58 50 44 43 41 42 45 40 31 31 33 30 30 31 30 31 34 34 35 37 38 40 43 44 46 49 51 52 54 55 56 55 53 55 58 56 54 66 88 93 82 76 84 91 87 80 79 83 88 85 80 78 81 88 97 102 101 100
82 79 71 60 53 51 48 40 34 31 30 32 31 30 30 30 29 30 31 31 33 35 35 36 39 39 41 44 46 48 52 53 55 58 59 60 62 61 60 60 58 62 81 100 98 85 86 95 92 81 76 81 89 96 95 85 77 78 86 95 101 102 100
72 62 55 53 52 49 42 34 30 30 30 31 32 31 31 30 30 32 33 33 35 36 36 38 40 41 43 46 48 51 54 55 57 60 61 62 65 66 65 64 62 68 88 101 95 87 92 98 94 88 88 92 94 94 95 92 89 90 93 95 98 100 100
61 54 54 54 47 39 33 30 30 31 31 32 33 33 33 33 34 35 36 36 38 39 40 42 44 45 48 50 52 54 56 58 60 61 62 65 67 67 69 69 66 72 86 91 87 88 95 99 97 94 95 98 97 95 95 98 99 99 99 97 98 100 99
55 55 56 49 38 31 30 30 31 32 34 35 37 37 37 38 39 40 42 43 45 46 48 49 51 52 54 55 57 59 60 61 63 63 64 66 67 68 71 71 71 79 89 88 83 89 97 99 99 98 98 99 100 99 100 100 100 100 100 99 99 98 94